User: anonymous   Login
Location: Sunrise Point
(46.9200°N, 121.5900°W)
Time: 22:45:43
(UTC-07:00)
Language:

Cosmos 2058 - Orbit

View from above orbital plane
View from above orbital plane
View from above satellite
View from above satellite

Ground track
Ground track

The orbit data is extracted from the following two-line orbital elements,

1 20465U 90010A   15247.19139436  .00000726  00000-0  61262-4 0  9998
2 20465  82.4927 154.4008 0015329 335.7023  24.3475 14.96640639387782
Epoch (UTC): 04 September 2015 04:35:36
Eccentricity: 0.0015329
inclination: 82.4927°
perigee height: 566 km
apogee height: 588 km
right ascension of ascending node: 154.4008°
argument of perigee: 335.7023°
revolutions per day: 14.96640639
mean anomaly at epoch: 24.3475°
orbit number at epoch: 38778

The dashed part of the orbit path shows where the satellite is in the earth's shadow,  

DLR